SCP
0 0 0 0 0 0 0 0 0 0 0 0 0 0 0 0 0 0 0 0 0 0 0 0 0 0 0 0 0 0 0 0 0 0 0 0 0 0 0 0 0 0 0 -0 -0 -0 -0 -0 -0
0 0 0 0 0 0 0 0 0 0 0 0 0 0 0 0 0 0 0 0 0 0 0 0 0 0 0 0 0 0 0 0 0 0 0 0 0 0 0 0 0 0 0 -0 -0 -0 -0 -0 -0
0 0 0 0 0 -0 -0 -0 -0 0 0 0 0 0 0 0 0 0 0 0 0 0 0 0 0 0 0 0 0 0 0 0 0 0 0 0 0 0 0 0 0 0 0 0 -0 -0 -0 -0 -0
0 0 0 0 -0 -0 -0 -0 0 0 0 0 0 0 0 0 0 0 0 0 0 0 0 0 0 0 0 0 0 0 0 0 0 0 0 0 0 0 0 0 0 0 0 0 0 -0 -0 -0 -0
0 0 0 0 -0 -0 -0 0 0 0 0 0 0 0 0 0 0 0 0 0 0 0 0 0 0 0 0 0 0 0 0 0 0 0 0 0 0 0 0 0 0 0 0 0 0 0 0 0 -0
0 0 0 -0 -0 -0 0 0 0 0 0 0 0 0 0 0 0 0 0 0 0 0 0 0 0 0 0 0 0 0 0 0 0 0 0 0 0 0 0 0 0 0 0 0 0 0 0 0 0
0 0 0 0 -0 0 0 0 0 0 0 0 0 0 0 0 0 0 0 0 0 0 0 0 0 0 0 0 0 0 0 0 0 0 0 0 0 0 0 0 0 0 0 0 0 0 0 0 0
0 0 0 0 0 0 0 0 0 0 0 0 0 0 0 0 0 0 0 0 0 0 0 0 0 0 0 0 0 0 0 0 0 0 0 0 0 0 0 0 0 0 0 0 0 0 0 0 0
0 0 0 0 0 0 0 0 0 0 0 0 0 0 0 0 1 1 1 0 0 0 0 0 0 0 0 0 0 0 0 0 0 0 0 0 0 0 0 0 0 0 0 0 0 0 0 0 0
0 0 0 0 0 0 0 0 0 0 0 0 0 0 0 0 1 1 1 1 0 0 0 0 0 0 0 0 0 0 0 0 0 0 0 0 0 0 0 0 0 0 0 0 0 0 0 0 0
0 0 0 0 0 0 0 0 0 0 0 0 0 0 0 0 1 1 1 1 0 0 0 0 0 0 0 0 0 0 0 0 0 0 0 0 0 0 0 0 0 0 0 0 0 0 0 0 0
0 0 0 0 0 0 0 0 0 0 0 0 0 0 0 0 0 1 1 1 1 0 0 0 0 0 0 0 0 0 0 0 -0 -0 0 0 0 0 0 0 0 0 0 0 0 0 0 0 0
0 0 0 0 0 0 0 0 0 0 0 1 1 0 0 0 0 0 1 1 1 1 0 0 0 0 0 0 0 0 0 0 0 -0 0 0 0 0 0 0 0 0 0 0 0 0 0 0 0
0 0 0 0 0 0 0 0 0 0 1 1 1 1 0 0 0 0 1 1 1 1 1 1 0 0 0 0 0 0 0 0 0 0 0 0 0 0 0 0 0 0 0 0 0 0 0 0 0
0 0 0 0 0 0 0 0 0 1 1 1 1 1 1 1 1 1 1 1 1 1 1 1 1 1 1 1 0 0 0 0 0 0 0 0 0 0 0 0 0 0 0 0 0 0 0 0 0
0 0 0 0 0 0 0 0 0 1 2 2 2 1 1 1 1 1 1 1 1 1 1 1 1 1 1 1 1 1 1 0 0 0 0 0 0 0 0 0 0 0 0 0 0 0 0 0 0
0 0 0 0 0 0 0 0 0 1 2 3 3 2 2 1 1 1 1 1 1 2 2 2 2 2 1 1 1 1 1 1 1 1 0 0 1 1 1 0 0 0 0 0 0 0 0 0 0
0 0 0 0 0 0 0 0 0 1 2 3 4 3 3 2 2 2 2 2 2 2 2 2 2 2 2 2 2 1 1 1 1 1 1 1 1 1 1 1 1 0 0 0 0 0 0 0 0
0 0 0 0 0 0 0 0 0 1 2 3 4 4 3 3 3 2 2 2 3 3 2 2 3 3 2 2 2 2 1 1 1 1 1 1 1 1 1 1 1 1 1 0 0 0 0 0 0
0 0 0 0 0 0 0 0 0 1 2 3 3 4 3 3 3 3 3 3 3 3 3 3 3 3 3 3 2 2 2 1 1 1 1 1 1 1 1 1 1 1 1 0 0 0 0 0 0
0 0 0 0 -0 -0 -0 0 0 1 1 2 3 3 3 3 3 3 3 3 3 3 3 3 3 3 3 3 3 2 2 1 1 1 1 1 1 1 1 1 1 1 1 0 0 0 0 0 0
0 0 0 0 -0 -0 0 0 0 0 1 1 2 3 3 3 3 3 3 3 3 3 3 3 3 3 3 3 3 2 2 1 1 1 1 1 1 1 1 1 1 1 0 0 0 0 0 0 0
0 0 0 0 -0 0 0 0 0 0 0 1 2 2 3 3 3 3 3 3 2 2 2 2 2 2 2 2 2 2 2 1 1 1 1 1 1 1 1 1 1 1 0 0 0 0 0 0 0
0 0 0 0 0 0 0 0 0 0 0 1 1 2 2 2 2 2 2 2 2 2 2 2 2 2 2 2 2 1 1 1 1 1 1 1 1 1 1 1 1 0 0 0 0 0 0 0 0
0 0 0 0 0 0 0 0 0 0 0 1 1 1 1 2 2 2 2 2 2 2 2 2 2 1 1 1 1 1 1 1 1 1 1 1 1 1 1 1 0 0 0 0 0 0 0 0 0
0 0 0 0 0 0 0 0 0 0 0 0 0 0 1 1 1 1 1 1 2 2 2 2 2 1 1 1 1 1 1 1 1 1 1 1 1 1 0 0 0 0 0 0 0 0 0 0 0
0 0 0 0 0 0 0 0 0 0 0 0 0 0 0 0 0 1 1 1 1 1 1 1 1 1 1 1 1 1 1 1 1 1 1 0 0 0 0 0 0 0 0 0 0 0 0 0 0
0 0 0 0 0 0 0 0 0 0 0 0 0 0 0 0 0 0 0 0 1 1 1 1 1 1 1 1 1 1 1 1 0 0 0 0 0 0 0 0 0 0 0 0 0 0 0 0 0
0 0 0 0 0 0 0 0 0 0 0 0 0 0 0 0 0 0 0 0 0 0 1 1 1 1 1 1 1 0 0 0 0 0 0 0 0 0 0 0 0 0 0 0 0 0 0 0 0
0 0 0 0 0 0 0 0 0 0 0 0 0 0 0 0 0 0 0 0 0 0 0 0 0 0 0 0 0 0 0 0 0 0 0 0 0 0 0 0 0 0 0 0 0 0 0 0 0
Wind_Speed
6 4 2 2 4 4 4 5 2 4 7 7 12 12 9 6 4 6 5 15 18 15 12 15 18 18 18 17 16 16 15 15 14 13 13 12 12 11 11 11 10 10 9 9 8 7 7 6 6
3 1 2 2 4 3 3 4 2 7 12 10 11 9 8 8 9 11 9 15 18 15 11 13 19 19 18 17 17 16 15 15 14 13 12 12 11 11 11 10 10 9 8 7 6 6 5 5 4
3 1 2 2 1 2 4 4 2 9 8 7 7 6 6 9 12 8 11 17 15 12 9 14 20 19 18 17 16 16 15 15 14 13 12 12 11 11 10 9 9 8 7 6 5 4 4 4 3
2 3 4 3 3 6 6 5 4 10 7 8 9 7 5 7 9 13 19 18 16 11 9 13 19 18 17 17 16 15 15 14 14 13 12 11 11 11 10 9 8 7 6 5 5 4 4 4 4
3 4 5 3 6 5 4 5 7 7 5 6 9 7 4 5 19 22 20 18 17 11 8 11 17 17 17 16 16 15 15 14 14 13 12 11 10 10 10 9 8 7 6 5 5 4 4 4 4
4 4 3 4 6 6 2 6 10 11 10 9 11 8 4 13 22 20 19 16 16 14 10 10 17 17 17 16 16 15 14 14 14 13 12 11 10 10 9 9 8 7 6 6 5 5 5 5 5
2 2 2 4 6 6 3 4 10 10 8 8 10 8 6 12 16 18 17 16 14 14 11 8 10 13 17 17 16 15 14 14 14 13 13 12 11 10 9 8 8 7 7 6 6 6 6 6 6
3 3 3 3 5 7 4 2 7 11 7 9 8 10 9 11 15 18 15 14 13 12 10 9 8 8 8 10 16 16 15 15 14 14 14 13 12 11 10 8 8 9 9 8 8 8 8 7 7
1 2 3 3 4 6 6 4 4 4 8 5 5 7 12 16 20 19 15 12 11 11 9 9 8 8 7 7 12 13 15 15 14 12 14 11 6 5 6 9 11 11 11 10 10 10 10 9 9
4 3 7 5 4 7 7 0 4 5 5 4 8 10 15 17 20 20 18 16 14 14 11 10 10 9 8 9 7 5 6 6 6 5 6 5 4 5 7 8 13 14 13 12 12 12 10 9 4
3 7 6 8 10 8 6 4 3 8 4 9 17 19 17 17 17 18 18 17 16 15 14 12 11 10 10 6 6 4 3 4 5 6 6 5 4 4 5 3 6 8 9 6 6 7 5 5 4
4 9 10 10 10 7 5 3 2 6 9 13 21 23 19 18 17 17 17 16 15 15 15 13 12 11 10 7 7 6 5 4 5 6 7 5 3 4 4 4 4 4 3 4 4 3 5 6 7
6 10 13 13 11 8 7 6 3 4 8 15 18 19 18 17 14 12 14 14 14 15 15 14 13 12 10 8 6 7 7 7 7 6 7 7 5 5 4 4 4 4 3 4 4 5 5 6 6
7 8 10 10 11 8 6 7 1 2 15 18 18 17 16 15 13 10 11 12 13 13 14 13 12 11 10 8 7 6 7 7 6 7 8 8 6 5 4 4 4 4 4 4 5 5 5 4 4
5 7 9 7 5 6 3 7 4 7 17 18 18 16 14 12 11 10 10 10 10 11 12 13 11 9 9 9 7 5 6 7 6 7 8 8 6 5 5 4 3 3 3 4 3 4 3 3 4
5 4 5 10 6 7 3 9 9 10 16 15 14 13 11 9 10 9 8 8 8 8 10 12 12 9 8 7 5 3 4 5 5 6 6 7 7 6 5 4 3 3 2 2 2 2 2 3 3
4 3 6 10 7 7 5 9 10 10 16 15 13 11 9 7 6 6 7 7 9 9 9 10 9 9 8 7 5 3 2 3 3 4 5 6 7 6 5 4 3 3 2 2 2 2 2 3 3
5 5 6 8 9 8 9 11 12 9 16 15 13 11 10 9 7 6 7 8 8 9 9 10 9 9 8 5 3 2 1 1 2 3 4 6 5 6 5 4 4 3 2 2 2 2 2 3 3
7 8 8 9 8 5 8 11 13 9 13 14 13 12 12 10 7 6 6 7 7 9 11 12 10 10 7 5 4 4 3 2 2 2 4 5 5 5 5 3 4 3 3 3 3 2 3 3 2
6 5 6 8 8 6 7 9 5 8 13 16 17 16 15 11 8 8 8 8 10 11 11 10 9 10 9 7 5 3 3 3 3 2 3 4 5 5 5 5 4 3 3 3 3 3 2 2 2
5 4 6 8 9 7 6 9 6 1 3 6 8 10 10 12 11 10 9 9 10 10 11 9 8 9 9 7 4 2 2 1 1 2 2 3 4 4 4 5 4 4 3 3 4 3 4 3 3
6 7 5 5 5 6 4 5 9 4 4 5 5 4 4 4 4 5 6 5 5 6 7 8 8 7 6 6 5 5 5 4 5 3 3 3 4 4 4 4 4 3 3 3 4 4 3 3 3
6 5 3 2 2 4 5 1 8 6 6 7 8 8 7 5 3 2 2 3 2 3 4 5 5 6 6 7 7 6 5 4 2 2 3 3 2 3 3 3 3 3 2 3 3 3 3 3 4
4 6 7 6 5 3 5 3 7 4 2 4 8 10 9 8 7 5 4 2 2 2 3 3 3 4 5 6 6 6 6 5 4 3 3 2 1 1 1 2 2 2 2 3 3 3 4 4 4
8 7 6 7 5 5 6 4 4 4 6 6 8 7 7 7 7 7 6 3 2 2 3 4 4 3 4 4 4 4 4 5 5 4 3 3 1 1 0 1 1 1 2 2 3 3 4 4 4
1 6 5 3 4 5 6 5 1 6 6 6 6 5 5 4 3 3 5 5 3 4 4 4 3 3 3 4 4 3 4 4 3 4 4 3 2 2 1 2 1 1 1 2 2 2 3 2 3
1 2 4 5 1 3 5 4 4 5 5 4 4 3 3 2 2 1 2 3 4 4 4 4 4 4 4 5 6 5 5 6 5 5 5 4 3 2 3 3 2 2 2 2 2 1 3 3 3
5 5 6 5 1 4 6 5 3 4 1 1 2 3 4 4 3 2 2 2 3 3 3 4 4 4 4 5 5 5 5 6 6 5 5 4 3 3 3 3 3 3 3 3 2 2 3 3 3
2 4 5 4 4 3 4 7 6 5 4 3 3 3 3 3 4 3 2 2 3 4 4 5 4 4 4 4 5 5 5 5 5 5 4 3 3 3 3 3 3 4 4 4 4 3 3 3 3
5 6 7 5 4 4 3 10 6 4 5 5 5 4 2 1 2 3 2 3 4 5 4 4 3 3 3 4 5 5 5 5 5 4 4 4 4 3 3 4 4 5 5 5 5 4 4 3 3
Wind_Direction
284 251 160 69 41 39 351 322 342 63 66 62 77 87 85 68 126 148 132 143 139 141 145 144 143 143 141 140 138 137 134 129 125 122 120 118 117 119 121 124 125 124 119 114 110 107 107 109 110
284 259 117 59 65 47 308 288 1 94 129 117 83 81 80 73 87 111 123 142 139 139 141 144 145 145 145 144 143 143 141 138 135 132 131 128 126 125 126 129 131 130 127 122 119 117 117 120 124
272 178 91 67 54 197 224 242 172 117 126 103 91 69 81 110 117 126 140 142 136 135 139 148 147 148 148 148 148 147 146 146 143 141 139 137 134 132 132 133 137 139 141 142 143 144 144 146 152
4 36 46 54 265 240 214 216 142 106 79 75 102 74 72 118 125 136 142 144 136 135 140 148 148 150 151 151 152 152 152 152 150 148 147 145 142 140 140 141 144 150 155 160 164 170 174 179 189
65 57 34 340 279 261 220 185 135 118 95 93 98 85 58 75 124 138 146 144 139 140 142 147 148 150 152 153 154 155 156 155 155 155 155 155 153 152 151 153 155 160 166 170 173 181 187 196 210
29 57 44 298 292 301 243 147 110 101 111 112 104 101 96 128 136 146 146 144 144 145 144 148 151 152 153 155 156 157 158 159 160 162 163 164 164 164 163 166 169 174 179 184 191 199 204 212 221
113 68 246 270 294 299 265 155 125 131 138 142 130 106 128 148 148 146 143 142 144 146 147 149 154 155 157 159 160 162 164 166 168 171 173 174 175 175 178 181 187 193 199 206 213 220 226 227 231
158 88 292 295 301 297 299 101 116 132 118 132 132 134 161 171 147 141 139 140 144 148 153 153 154 155 159 164 168 170 172 175 176 178 179 181 184 188 194 198 207 212 217 223 230 236 240 241 240
67 66 252 254 292 321 348 67 66 92 126 154 142 146 155 146 138 138 139 140 148 155 161 161 160 160 161 166 177 176 179 182 183 184 187 187 192 200 209 216 220 226 229 233 238 243 247 249 249
120 195 234 224 268 300 309 263 141 129 124 100 93 113 133 139 143 148 152 157 162 166 171 172 170 170 169 178 176 181 185 187 188 189 194 191 195 210 221 231 232 233 234 236 240 245 250 253 250
195 223 256 270 275 280 280 253 163 141 173 164 146 146 147 147 151 156 161 165 169 171 174 177 178 177 179 183 173 186 188 188 198 201 202 202 206 219 228 222 237 239 237 236 248 251 244 241 241
259 273 276 278 282 285 278 258 173 182 200 168 154 153 155 159 162 164 167 170 171 173 179 180 180 181 188 186 182 188 191 193 204 211 208 202 208 220 219 212 210 210 216 221 232 245 248 246 246
262 267 273 272 273 271 282 273 230 225 157 147 149 153 161 167 168 164 166 170 172 177 180 183 183 184 189 186 189 191 197 199 203 209 212 204 201 206 204 200 197 204 210 221 229 238 245 249 251
255 271 281 282 280 274 276 281 272 185 144 149 155 164 167 170 168 163 164 169 174 176 179 181 182 183 185 185 191 196 201 201 199 207 211 205 199 190 182 183 187 200 207 216 222 229 238 247 251
287 300 304 297 296 280 303 303 262 162 153 159 167 169 167 169 169 171 167 166 172 172 171 178 179 175 175 179 187 190 196 195 198 204 205 200 193 182 175 176 186 200 205 212 224 240 244 251 255
344 348 312 296 297 298 321 271 268 164 163 168 174 173 168 167 169 169 165 162 165 165 168 178 183 175 174 174 182 187 180 182 195 197 197 197 191 180 172 176 195 205 202 208 222 237 246 260 267
353 321 291 296 293 290 281 262 260 181 174 176 177 173 165 167 174 174 172 172 167 167 170 178 180 177 180 178 182 189 173 175 192 192 191 195 191 182 172 179 193 192 191 214 234 228 226 250 267
262 278 284 282 285 285 275 263 260 203 180 178 173 167 166 168 183 181 173 172 168 169 176 186 186 186 183 177 177 179 175 187 184 182 184 186 188 183 174 179 189 184 186 218 227 235 237 239 251
254 271 276 274 276 293 276 269 254 208 175 168 170 174 177 173 177 179 177 169 164 175 184 190 191 189 182 178 183 184 198 202 204 199 183 179 183 181 178 181 188 191 198 215 221 221 242 253 242
254 266 278 289 304 322 304 295 266 179 177 174 175 179 179 171 171 175 181 172 170 181 189 195 194 193 190 190 186 182 179 194 200 197 188 190 186 181 183 184 192 198 205 227 233 220 232 254 223
313 302 292 297 318 343 354 331 337 319 162 166 170 170 169 170 173 176 183 183 181 188 187 187 192 200 196 189 171 160 149 150 174 195 201 205 190 186 182 186 190 200 202 223 236 231 224 244 256
296 289 306 331 355 317 19 310 302 336 25 63 90 117 138 142 153 167 163 169 188 197 192 182 182 186 195 187 182 181 190 200 207 198 196 202 194 189 189 188 193 204 212 229 242 240 230 230 253
270 287 332 351 17 345 355 325 291 7 29 41 51 58 60 60 75 100 121 144 151 185 189 178 171 177 192 194 195 190 202 207 198 185 178 182 187 185 184 185 191 207 222 239 253 261 250 236 238
346 14 8 29 53 341 288 289 284 355 360 73 63 58 53 48 42 34 25 58 120 134 138 153 169 196 199 194 193 190 194 189 176 172 166 165 168 178 191 182 189 208 233 254 262 262 262 255 251
40 54 17 356 359 270 298 300 260 48 42 72 78 67 55 46 41 28 12 14 52 92 110 132 160 186 191 179 173 176 175 170 164 158 156 146 133 126 185 145 180 222 255 269 273 274 274 267 262
47 114 144 219 253 290 320 286 341 69 55 53 60 58 49 42 36 32 11 0 36 64 83 103 124 133 133 128 125 125 129 126 117 115 116 114 113 109 86 78 66 358 321 310 306 293 285 284 281
96 90 154 150 288 285 280 301 61 65 46 33 28 15 353 348 349 1 25 14 40 50 64 88 100 94 97 101 98 94 96 98 100 96 92 92 94 98 79 71 52 18 356 339 341 326 315 319 304
105 122 78 85 57 286 294 306 295 305 295 320 313 312 314 315 312 325 8 33 56 60 59 63 78 93 95 98 103 103 98 99 102 96 93 93 84 74 69 48 30 17 14 13 10 338 332 343 332
92 83 102 118 159 197 263 267 225 218 207 213 242 260 288 308 313 326 347 14 56 58 57 66 68 79 86 98 105 105 104 103 101 100 101 96 78 71 64 50 43 42 36 29 25 4 6 6 356
138 154 147 154 213 199 217 264 261 199 205 206 219 230 237 281 303 316 358 26 40 53 56 61 71 84 93 105 108 109 112 109 104 102 98 91 79 68 68 64 59 51 45 37 30 12 6 8 6